Location: Plainartige
(45.6866°N, 1.7993°E)
Time: 22:26:04
(UTC+00:00)

POLYITAN 1 - Pass Details

Date: 30 June 2022
Orbit: 586 x 605 km, 98.0° (Epoch: 16 August)

Event Time Altitude Azimuth Distance (km) Brightness Sun altitude
Rises 01:08:15 0° 21° (NNE) 2,858 ? -19.2°
Reaches altitude 10° 01:10:34 10° 30° (NNE) 1,953 ? -19.1°
Maximum altitude 01:14:29 35° 97° (E) 976 ? -18.9°
Enters shadow 01:16:15 25° 143° (SE) 1,243 ? -18.8°
